Grand Prairie, TX

7:11 AM CDT on April 21, 2018 (GMT -0500)
Grand Prairie Municipal

Weather History for KGPM - March, 2013

Change the Weather History Date:

Friday, March 8, 2013

  Actual Average (KRBD) Record (KRBD)
Temperature  
Mean Temperature 56 °F -  
Max Temperature 60 °F 61 °F 82 °F (2009)
Min Temperature 53 °F 42 °F 24 °F (2008)
Degree Days  
Heating Degree Days 8    
Growing Degree Days 6 (Base 50)    
Moisture  
Dew Point 49 °F    
Average Humidity 72    
Maximum Humidity 82    
Minimum Humidity 55    
Precipitation  
Precipitation 0.00 in - - ()
Sea Level Pressure  
Sea Level Pressure 30.11 in    
Wind  
Wind Speed 10 mph (SSE)    
Max Wind Speed 15 mph    
Max Gust Speed 21 mph    
Visibility 9 miles    
Events      
Averages and records for this station are not official NWS values.
T = Trace of Precipitation, MM = Missing Value Source: NWS Daily Summary

Daily Weather History Graph

Daily Weather History Graph

Search for Another Location

Airport or City:

Astronomy

Mar. 08, 2013 Rise Set
Actual Time 6:47 AM CST 6:31 PM CST
Civil Twilight 6:22 AM CST 6:55 PM CST
Nautical Twilight 5:53 AM CST 7:24 PM CST
Astronomical Twilight 5:25 AM CST 7:52 PM CST
Moon 4:23 AM CST (3/8) 3:35 PM CST (3/8)
Length of Visible Light 12h 33m
Length of Day
11h 44m
Waning Crescent, 11% of the Moon is Illuminated
Mar 8
Waning Crescent
Mar 11
New
Mar 19
First Quarter
Mar 27
Full
Apr 2
Last Quarter

Hourly Weather History & Observations

Time (CST) Temp. Dew Point Humidity Pressure Visibility Wind Dir Wind Speed Gust Speed Precip Events Conditions
12:15 AM 57.2 °F 41.0 °F 55% 30.14 in 10.0 mi SSE 13.8 mph 20.7 mph N/A   Clear
12:35 AM 57.2 °F 41.0 °F 55% 30.15 in 10.0 mi South 12.7 mph 18.4 mph N/A   Clear
12:55 AM 55.4 °F 41.0 °F 58% 30.15 in 10.0 mi South 8.1 mph - N/A   Clear
1:15 AM 55.4 °F 41.0 °F 58% 30.15 in 10.0 mi South 9.2 mph - N/A   Clear
1:35 AM 55.4 °F 42.8 °F 63% 30.16 in 10.0 mi South 10.4 mph 16.1 mph N/A   Clear
1:55 AM 55.4 °F 44.6 °F 67% 30.15 in 10.0 mi South 10.4 mph 16.1 mph N/A   Clear
2:15 AM 55.4 °F 44.6 °F 67% 30.14 in 10.0 mi South 9.2 mph 16.1 mph N/A   Clear
2:35 AM 55.4 °F 44.6 °F 67% 30.14 in 10.0 mi South 9.2 mph - N/A   Clear
2:55 AM 55.4 °F 44.6 °F 67% 30.14 in 10.0 mi SSE 10.4 mph - N/A   Clear
3:15 AM 55.4 °F 44.6 °F 67% 30.12 in 10.0 mi SSE 10.4 mph 16.1 mph N/A   Clear
3:35 AM 55.4 °F 44.6 °F 67% 30.14 in 10.0 mi SSE 8.1 mph - N/A   Clear
3:55 AM 53.6 °F 44.6 °F 72% 30.12 in 10.0 mi SSE 9.2 mph - N/A   Clear
4:15 AM 53.6 °F 46.4 °F 77% 30.13 in 10.0 mi SSE 5.8 mph - N/A   Mostly Cloudy
4:35 AM 55.4 °F 46.4 °F 72% 30.14 in 10.0 mi SSE 8.1 mph - N/A   Mostly Cloudy
4:55 AM 55.4 °F 46.4 °F 72% 30.13 in 10.0 mi SSE 8.1 mph - N/A   Mostly Cloudy
5:15 AM 55.4 °F 46.4 °F 72% 30.14 in 10.0 mi SSE 9.2 mph - N/A   Mostly Cloudy
5:35 AM 55.4 °F 46.4 °F 72% 30.14 in 10.0 mi SSE 6.9 mph - N/A   Mostly Cloudy
5:55 AM 55.4 °F 46.4 °F 72% 30.14 in 10.0 mi SSE 9.2 mph - N/A   Mostly Cloudy
7:55 AM 55.4 °F 48.2 °F 77% 30.17 in 7.0 mi SE 5.8 mph - N/A   Clear
8:55 AM 57.2 °F 50.0 °F 77% 30.21 in 7.0 mi SE 5.8 mph - N/A   Overcast
10:55 AM 60.8 °F 51.8 °F 72% 30.19 in 7.0 mi SSE 11.5 mph - N/A   Overcast
11:55 AM 60.8 °F 51.8 °F 72% 30.17 in 7.0 mi SE 10.4 mph 16.1 mph N/A   Overcast
1:55 PM 60.8 °F 53.6 °F 77% 30.11 in 7.0 mi SE 11.5 mph - N/A   Overcast
3:50 PM 60.8 °F 55.4 °F 82% 30.09 in 7.0 mi SE 6.9 mph - N/A   Overcast
4:50 PM 60.8 °F 55.4 °F 82% 30.06 in 7.0 mi SE 10.4 mph 17.3 mph N/A   Overcast
5:50 PM 60.8 °F 55.4 °F 82% 30.06 in 7.0 mi SE 9.2 mph 18.4 mph N/A   Overcast
8:15 PM 60.8 °F 53.6 °F 77% 30.06 in 10.0 mi SSE 8.1 mph - N/A   Mostly Cloudy
8:35 PM 60.8 °F 53.6 °F 77% 30.06 in 10.0 mi SE 5.8 mph - N/A   Scattered Clouds
8:55 PM 60.8 °F 53.6 °F 77% 30.05 in 10.0 mi SSE 6.9 mph - N/A   Clear
9:15 PM 59.0 °F 53.6 °F 82% 30.06 in 10.0 mi SE 5.8 mph - N/A   Clear
9:35 PM 60.8 °F 53.6 °F 77% 30.06 in 10.0 mi SE 10.4 mph - N/A   Scattered Clouds
9:55 PM 60.8 °F 53.6 °F 77% 30.05 in 10.0 mi SSE 11.5 mph 16.1 mph N/A   Mostly Cloudy
10:15 PM 60.8 °F 53.6 °F 77% 30.05 in 10.0 mi SSE 10.4 mph - N/A   Mostly Cloudy
10:35 PM 60.8 °F 53.6 °F 77% 30.05 in 10.0 mi SSE 9.2 mph - N/A   Mostly Cloudy
10:55 PM 60.8 °F 53.6 °F 77% 30.04 in 10.0 mi SSE 11.5 mph 18.4 mph N/A   Mostly Cloudy
11:15 PM 60.8 °F 53.6 °F 77% 30.04 in 10.0 mi South 10.4 mph - N/A   Mostly Cloudy
11:35 PM 60.8 °F 53.6 °F 77% 30.02 in 10.0 mi SSE 9.2 mph 17.3 mph N/A   Mostly Cloudy
11:55 PM 60.8 °F 53.6 °F 77% 30.02 in 10.0 mi South 15.0 mph 20.7 mph N/A   Mostly Cloudy